STARLINK A

Last updated on June 19, 2020, 12:02 a.m. UTC

1 45730U 20038A   20170.66667824  .01824713  17921-2  34424-2 0  9994
2 45730  53.0004 272.2774 0098525  69.8300  15.6796 15.91998325  2120

Satellite is not in orbit.